| time (UTC) | temp F | wind direction | speed MPH | gust MPH | rain 1hr in | rain 24hr in | rain mn in | humidity % | barometer mb |
| 20260905075914 | 70 | 180 | 0.0 | 0.0 | 0.00 | 0.02 | 0.00 | 82 | 1032.8 |
| 20260905073916 | 70 | 180 | 0.0 | 0.0 | 0.00 | 0.02 | 0.00 | 82 | 1032.8 |
| 20260905070014 | 70 | 180 | 0.0 | 0.0 | 0.00 | 0.02 | 0.00 | 83 | 1032.8 |
| 20260905065915 | 70 | 180 | 0.0 | 0.0 | 0.00 | 0.02 | 0.00 | 83 | 1032.8 |
| 20260905064915 | 70 | 180 | 0.0 | 0.0 | 0.00 | 0.02 | 0.00 | 83 | 1033.0 |
| 20260905063915 | 70 | 180 | 0.0 | 0.0 | 0.00 | 0.02 | 0.00 | 83 | 1033.1 |
| 20260905061914 | 70 | 180 | 0.0 | 0.0 | 0.00 | 0.02 | 0.00 | 83 | 1033.1 |
| 20260905060914 | 70 | 180 | 0.0 | 0.0 | 0.00 | 0.02 | 0.00 | 81 | 1033.0 |
| 20260905060812 | 70 | 180 | 0.0 | 0.0 | 0.00 | 0.02 | 0.00 | 81 | 1033.0 |
| 20260905055814 | 70 | 180 | 0.0 | 0.0 | 0.00 | 0.02 | 0.00 | 80 | 1033.1 |
| 20260905053912 | 71 | 180 | 0.0 | 0.0 | 0.00 | 0.02 | 0.00 | 80 | 1033.1 |
| 20260905052916 | 72 | 180 | 0.0 | 0.0 | 0.00 | 0.02 | 0.00 | 80 | 1033.4 |
| 20260905051013 | 73 | 180 | 0.0 | 0.0 | 0.00 | 0.02 | 0.00 | 81 | 1033.4 |
| 20260905050016 | 73 | 180 | 0.0 | 0.0 | 0.00 | 0.02 | 0.00 | 80 | 1033.5 |
| 20260905045913 | 73 | 180 | 0.0 | 0.0 | 0.00 | 0.02 | 0.00 | 81 | 1033.4 |
| 20260905045012 | 73 | 180 | 0.0 | 0.0 | 0.00 | 0.02 | 0.00 | 80 | 1033.4 |
| 20260905044013 | 73 | 180 | 0.0 | 0.0 | 0.00 | 0.02 | 0.00 | 82 | 1033.6 |
| 20260905043014 | 73 | 180 | 0.0 | 0.0 | 0.00 | 0.02 | 0.00 | 82 | 1033.4 |
| 20260905042014 | 74 | 180 | 0.0 | 0.0 | 0.00 | 0.02 | 0.00 | 82 | 1033.5 |
| 20260905041912 | 74 | 180 | 0.0 | 0.0 | 0.00 | 0.02 | 0.00 | 82 | 1033.6 |
| 20260905035922 | 74 | 180 | 0.0 | 0.0 | 0.00 | 0.02 | 0.02 | 82 | 1033.6 |
| 20260905033924 | 74 | 180 | 0.0 | 0.0 | 0.00 | 0.02 | 0.02 | 81 | 1033.6 |
| 20260905032924 | 74 | 180 | 0.0 | 0.0 | 0.00 | 0.02 | 0.02 | 82 | 1033.6 |
| 20260905032822 | 74 | 180 | 0.0 | 0.0 | 0.00 | 0.02 | 0.02 | 82 | 1033.4 |
| 20260905031823 | 74 | 180 | 0.0 | 0.0 | 0.00 | 0.02 | 0.02 | 82 | 1033.4 |
| 20260905030823 | 74 | 180 | 0.0 | 0.0 | 0.00 | 0.02 | 0.02 | 81 | 1033.4 |
| 20260905025922 | 75 | 180 | 0.0 | 0.0 | 0.00 | 0.02 | 0.02 | 81 | 1033.3 |
| 20260905023923 | 75 | 180 | 0.0 | 0.0 | 0.00 | 0.02 | 0.02 | 82 | 1033.4 |
| 20260905023022 | 75 | 180 | 0.0 | 0.0 | 0.00 | 0.02 | 0.02 | 81 | 1033.3 |
| 20260905021922 | 75 | 180 | 0.0 | 0.0 | 0.00 | 0.02 | 0.02 | 81 | 1033.3 |
| 20260905020922 | 75 | 180 | 0.0 | 0.0 | 0.00 | 0.02 | 0.02 | 80 | 1033.5 |
| 20260905015923 | 75 | 180 | 0.0 | 0.0 | 0.00 | 0.02 | 0.02 | 80 | 1033.4 |
| 20260905014923 | 75 | 180 | 0.0 | 0.0 | 0.00 | 0.02 | 0.02 | 80 | 1033.4 |
| 20260905013924 | 75 | 180 | 0.0 | 0.0 | 0.00 | 0.02 | 0.02 | 79 | 1033.3 |
| 20260905013022 | 75 | 180 | 0.0 | 0.0 | 0.00 | 0.02 | 0.02 | 80 | 1033.4 |
| 20260905012023 | 75 | 180 | 0.0 | 0.0 | 0.00 | 0.02 | 0.02 | 81 | 1033.6 |
| 20260905011023 | 75 | 180 | 0.0 | 0.0 | 0.00 | 0.02 | 0.02 | 80 | 1033.5 |
| 20260905005025 | 75 | 180 | 0.0 | 0.0 | 0.00 | 0.02 | 0.02 | 80 | 1033.5 |
| 20260905004025 | 75 | 180 | 0.0 | 0.0 | 0.00 | 0.02 | 0.02 | 79 | 1033.3 |
| 20260905003023 | 75 | 180 | 0.0 | 0.0 | 0.00 | 0.02 | 0.02 | 78 | 1033.5 |
| 20260905002023 | 75 | 180 | 0.0 | 0.0 | 0.00 | 0.02 | 0.02 | 77 | 1033.2 |
| 20260905001021 | 76 | 180 | 0.0 | 0.0 | 0.00 | 0.02 | 0.02 | 77 | 1033.1 |
| 20260905000021 | 76 | 180 | 0.0 | 0.0 | 0.00 | 0.02 | 0.02 | 76 | 1032.9 |
| 20260904235022 | 76 | 180 | 0.0 | 0.0 | 0.00 | 0.02 | 0.02 | 75 | 1032.9 |
| 20260904234023 | 77 | 180 | 0.0 | 0.0 | 0.00 | 0.02 | 0.02 | 75 | 1032.9 |
| 20260904233023 | 77 | 180 | 0.0 | 0.0 | 0.00 | 0.02 | 0.02 | 75 | 1032.9 |
| 20260904232022 | 78 | 180 | 0.0 | 0.0 | 0.00 | 0.02 | 0.02 | 74 | 1033.0 |
| 20260904231923 | 78 | 180 | 0.0 | 0.0 | 0.00 | 0.02 | 0.02 | 73 | 1032.8 |
| 20260904230922 | 78 | 180 | 0.0 | 0.0 | 0.00 | 0.02 | 0.02 | 73 | 1033.0 |
| 20260904225923 | 79 | 180 | 0.0 | 0.0 | 0.00 | 0.02 | 0.02 | 73 | 1032.9 |
| 20260904224922 | 79 | 180 | 0.0 | 0.0 | 0.00 | 0.02 | 0.02 | 72 | 1033.0 |
| 20260904223921 | 80 | 180 | 0.0 | 0.0 | 0.00 | 0.02 | 0.02 | 71 | 1033.0 |
| 20260904221923 | 80 | 180 | 0.0 | 0.0 | 0.00 | 0.03 | 0.02 | 72 | 1033.4 |
| 20260904220923 | 80 | 180 | 0.0 | 0.0 | 0.00 | 0.03 | 0.02 | 71 | 1033.3 |
| 20260904215922 | 80 | 180 | 0.0 | 0.0 | 0.00 | 0.03 | 0.02 | 71 | 1033.1 |
| 20260904214924 | 81 | 180 | 0.0 | 2.0 | 0.00 | 0.03 | 0.02 | 69 | 1033.3 |
| 20260904214022 | 82 | 180 | 0.0 | 0.0 | 0.00 | 0.03 | 0.02 | 69 | 1033.2 |
| 20260904213023 | 82 | 180 | 0.0 | 0.0 | 0.00 | 0.03 | 0.02 | 67 | 1033.3 |
| 20260904212121 | 82 | 180 | 0.0 | 0.0 | 0.00 | 0.03 | 0.02 | 65 | 1033.2 |
| 20260904211124 | 83 | 135 | 0.0 | 0.0 | 0.00 | 0.03 | 0.02 | 65 | 1033.2 |
| 20260904210124 | 84 | 156 | 0.0 | 0.0 | 0.00 | 0.03 | 0.02 | 64 | 1033.1 |
| 20260904205123 | 85 | 180 | 0.0 | 0.0 | 0.00 | 0.03 | 0.02 | 63 | 1033.0 |
| 20260904204121 | 85 | 180 | 0.0 | 0.0 | 0.00 | 0.03 | 0.02 | 61 | 1033.0 |
| 20260904203123 | 86 | 135 | 0.0 | 0.0 | 0.00 | 0.03 | 0.02 | 61 | 1033.1 |
| 20260904202222 | 86 | 135 | 0.0 | 0.0 | 0.00 | 0.03 | 0.02 | 61 | 1033.2 |
| 20260904201221 | 85 | 180 | 0.0 | 0.0 | 0.00 | 0.03 | 0.02 | 60 | 1033.3 |
| 20260904200222 | 85 | 90 | 0.0 | 0.0 | 0.00 | 0.03 | 0.02 | 60 | 1033.3 |
| 20260904194322 | 88 | 183 | 1.0 | 3.0 | 0.00 | 0.03 | 0.02 | 55 | 1033.7 |
| 20260904193321 | 89 | 180 | 0.0 | 0.0 | 0.00 | 0.03 | 0.02 | 55 | 1033.8 |
| 20260904192323 | 89 | 135 | 0.0 | 0.0 | 0.00 | 0.03 | 0.02 | 53 | 1034.0 |
| 20260904191324 | 89 | 180 | 0.0 | 0.0 | 0.00 | 0.03 | 0.02 | 53 | 1034.0 |
| 20260904190323 | 89 | 132 | 0.0 | 1.0 | 0.00 | 0.03 | 0.02 | 54 | 1034.2 |
| 20260904185322 | 89 | 157 | 0.0 | 2.0 | 0.00 | 0.03 | 0.02 | 55 | 1034.2 |
| 20260904184325 | 87 | 165 | 0.0 | 3.0 | 0.00 | 0.03 | 0.02 | 57 | 1034.3 |
| 20260904183422 | 86 | 135 | 0.0 | 0.0 | 0.00 | 0.03 | 0.02 | 61 | 1034.5 |
| 20260904182424 | 84 | 135 | 0.0 | 2.0 | 0.00 | 0.03 | 0.02 | 64 | 1034.6 |
| 20260904181522 | 82 | 157 | 0.0 | 0.0 | 0.00 | 0.03 | 0.02 | 68 | 1034.4 |
| 20260904181438 | 82 | 157 | 0.0 | 0.0 | 0.00 | 0.03 | 0.02 | 69 | 1034.4 |
| 20260904181322 | 82 | 157 | 0.0 | 0.0 | 0.00 | 0.03 | 0.02 | 69 | 1034.4 |
| 20260904175323 | 82 | 180 | 0.0 | 0.0 | 0.00 | 0.03 | 0.02 | 70 | 1034.6 |
| 20260904174322 | 82 | 225 | 0.0 | 0.0 | 0.00 | 0.03 | 0.02 | 68 | 1034.5 |
| 20260904173322 | 83 | 225 | 0.0 | 0.0 | 0.00 | 0.03 | 0.02 | 67 | 1034.7 |
| 20260904172323 | 83 | 225 | 0.0 | 0.0 | 0.00 | 0.03 | 0.02 | 65 | 1034.6 |
| 20260904172240 | 83 | 225 | 0.0 | 0.0 | 0.00 | 0.03 | 0.02 | 66 | 1034.7 |
| 20260904171125 | 83 | 225 | 0.0 | 0.0 | 0.00 | 0.03 | 0.02 | 66 | 1034.5 |
| 20260904170221 | 83 | 225 | 0.0 | 0.0 | 0.00 | 0.03 | 0.02 | 64 | 1034.8 |
| 20260904165223 | 84 | 180 | 0.0 | 0.0 | 0.00 | 0.03 | 0.02 | 63 | 1034.7 |
| 20260904165123 | 84 | 180 | 0.0 | 0.0 | 0.00 | 0.03 | 0.02 | 63 | 1034.8 |
| 20260904163122 | 86 | 180 | 0.0 | 0.0 | 0.00 | 0.03 | 0.02 | 60 | 1034.9 |
| 20260904163022 | 86 | 180 | 0.0 | 0.0 | 0.00 | 0.03 | 0.02 | 59 | 1034.7 |
| 20260904162022 | 86 | 135 | 0.0 | 0.0 | 0.00 | 0.03 | 0.02 | 57 | 1034.9 |
| 20260904161121 | 86 | 135 | 0.0 | 0.0 | 0.00 | 0.03 | 0.02 | 57 | 1034.8 |
| 20260904160122 | 86 | 194 | 0.0 | 2.0 | 0.00 | 0.03 | 0.02 | 58 | 1034.9 |
| 20260904155122 | 87 | 135 | 0.0 | 0.0 | 0.00 | 0.03 | 0.02 | 57 | 1034.9 |
| 20260904155024 | 87 | 135 | 0.0 | 0.0 | 0.00 | 0.03 | 0.02 | 57 | 1034.9 |
| 20260904153140 | 87 | 152 | 0.0 | 2.0 | 0.02 | 0.03 | 0.02 | 58 | 1035.0 |
| 20260904153022 | 87 | 156 | 0.0 | 0.0 | 0.02 | 0.03 | 0.02 | 57 | 1035.0 |
| 20260904152022 | 87 | 180 | 0.0 | 0.0 | 0.02 | 0.03 | 0.02 | 57 | 1035.0 |
| 20260904150921 | 87 | 180 | 0.0 | 1.0 | 0.02 | 0.03 | 0.02 | 59 | 1035.1 |
| 20260904144922 | 85 | 180 | 0.0 | 0.0 | 0.02 | 0.03 | 0.02 | 62 | 1035.0 |
| 20260904144824 | 85 | 180 | 0.0 | 0.0 | 0.02 | 0.03 | 0.02 | 63 | 1035.1 |
| 20260904143823 | 85 | 166 | 0.0 | 0.0 | 0.02 | 0.03 | 0.01 | 63 | 1034.9 |
| 20260904142823 | 84 | 177 | 0.0 | 0.0 | 0.00 | 0.01 | 0.00 | 64 | 1034.9 |
| 20260904141922 | 84 | 135 | 0.0 | 2.0 | 0.00 | 0.01 | 0.00 | 63 | 1034.8 |
| 20260904140824 | 83 | 157 | 0.0 | 2.0 | 0.00 | 0.01 | 0.00 | 68 | 1034.8 |
| 20260904135822 | 82 | 157 | 0.0 | 2.0 | 0.00 | 0.01 | 0.00 | 70 | 1034.7 |
| 20260904133821 | 79 | 156 | 1.0 | 4.0 | 0.00 | 0.01 | 0.00 | 75 | 1034.8 |
| 20260904132822 | 77 | 135 | 0.0 | 0.0 | 0.00 | 0.01 | 0.00 | 78 | 1034.8 |
| 20260904131822 | 76 | 122 | 0.0 | 4.0 | 0.00 | 0.01 | 0.00 | 80 | 1034.8 |
| 20260904130823 | 75 | 157 | 0.0 | 0.0 | 0.00 | 0.01 | 0.00 | 82 | 1034.9 |
| 20260904125824 | 75 | 135 | 0.0 | 0.0 | 0.00 | 0.01 | 0.00 | 82 | 1034.8 |
| 20260904124822 | 74 | 180 | 0.0 | 2.0 | 0.00 | 0.01 | 0.00 | 83 | 1034.8 |
| 20260904123823 | 74 | 135 | 0.0 | 1.0 | 0.00 | 0.01 | 0.00 | 85 | 1035.0 |
| 20260904123721 | 74 | 147 | 1.0 | 3.0 | 0.00 | 0.01 | 0.00 | 86 | 1035.1 |
| 20260904122723 | 73 | 135 | 0.0 | 2.0 | 0.00 | 0.01 | 0.00 | 88 | 1035.0 |
| 20260904121722 | 72 | 135 | 0.0 | 0.0 | 0.00 | 0.01 | 0.00 | 89 | 1034.8 |
| 20260904120822 | 72 | 180 | 0.0 | 1.0 | 0.00 | 0.01 | 0.00 | 90 | 1034.9 |
| 20260904113824 | 71 | 180 | 0.0 | 0.0 | 0.00 | 0.01 | 0.00 | 90 | 1034.8 |
| 20260904111822 | 71 | 180 | 0.0 | 0.0 | 0.00 | 0.01 | 0.00 | 91 | 1034.6 |
| 20260904110822 | 71 | 180 | 0.0 | 0.0 | 0.00 | 0.01 | 0.00 | 92 | 1034.5 |
| 20260904105826 | 71 | 180 | 0.0 | 0.0 | 0.00 | 0.01 | 0.00 | 92 | 1034.1 |
| 20260904104922 | 71 | 180 | 0.0 | 0.0 | 0.00 | 0.01 | 0.00 | 92 | 1034.2 |
| 20260904103923 | 71 | 180 | 0.0 | 0.0 | 0.00 | 0.01 | 0.00 | 91 | 1034.0 |
| 20260904102924 | 72 | 180 | 0.0 | 0.0 | 0.00 | 0.01 | 0.00 | 91 | 1034.0 |
| 20260904102824 | 72 | 180 | 0.0 | 0.0 | 0.00 | 0.01 | 0.00 | 92 | 1033.9 |
| 20260904101723 | 72 | 180 | 0.0 | 0.0 | 0.00 | 0.01 | 0.00 | 92 | 1033.9 |
| 20260904100724 | 72 | 180 | 0.0 | 1.0 | 0.00 | 0.01 | 0.00 | 92 | 1034.1 |
| 20260904095724 | 73 | 180 | 0.0 | 0.0 | 0.00 | 0.01 | 0.00 | 91 | 1034.0 |
| 20260904091821 | 73 | 180 | 0.0 | 0.0 | 0.00 | 0.08 | 0.00 | 91 | 1034.0 |
| 20260904090822 | 73 | 180 | 0.0 | 0.0 | 0.00 | 0.10 | 0.00 | 92 | 1034.1 |
| 20260904085823 | 73 | 180 | 0.0 | 0.0 | 0.00 | 0.14 | 0.00 | 91 | 1033.9 |
| 20260904084822 | 73 | 180 | 0.0 | 0.0 | 0.00 | 0.16 | 0.00 | 92 | 1034.0 |
| 20260904083822 | 73 | 180 | 0.0 | 0.0 | 0.00 | 0.17 | 0.00 | 91 | 1034.0 |
| 20260904082823 | 74 | 180 | 0.0 | 0.0 | 0.00 | 0.23 | 0.00 | 92 | 1034.0 |
| 20260904081922 | 74 | 180 | 0.0 | 0.0 | 0.00 | 0.24 | 0.00 | 91 | 1033.8 |
| 20260904080924 | 74 | 180 | 0.0 | 0.0 | 0.00 | 0.24 | 0.00 | 91 | 1033.9 |